Hourly Data Report for March 17, 2022

KUGAARUK CLIMATE
NUNAVUT
Current Station Operator: ECCC - MSC

68°32'15.060" N
89°47'47.020" W
15.80 m
2303094
71407
NBB

Download Data

Hourly Data (March 2022)
Hourly Data Report for March 17, 2022
TIME
LST
Temp Definition
°C
Dew Point Definition
°C
Rel Hum Definition
%
Precip. Amount Definition
mm

Wind Dir Definition
10's deg

Wind Spd Definition
km/h
Visibility Definition
km
Stn Press Definition
kPa
Hmdx Definition


Wind Chill Definition


Weather Definition


00:00 -23.3 -26.2 77 0.0 27 5   99.03   -28 LegendNANA
01:00 -26.2 -29.3 76 0.0 27 8   99.10   -34 LegendNANA
02:00 -25.5 -28.5 76 0.0 24 8   99.13   -33 LegendNANA
03:00 -24.3 -27.1 77 0.0 26 10   99.15   -32 LegendNANA
04:00 -23.8 -26.6 78 0.0 27 16   99.14   -34 LegendNANA
05:00 -21.2 -23.8 79 0.0 25 18   99.12   -31 LegendNANA
06:00 -21.0 -23.6 79 0.0 23 28   99.11   -34 LegendNANA
07:00 -20.5 -23.1 80 0.0 24 28   99.14   -33 LegendNANA
08:00 -20.4 -23.0 80 0.0 24 28   99.15   -33 LegendNANA
09:00 -20.3 -23.0 79 0.2 24 31   99.18   -33 LegendNANA
10:00 -20.2 -22.8 79 0.0 24 26   99.21   -32 LegendNANA
11:00 -19.8 -22.6 79 0.0 25 24   99.24   -31 LegendNANA
12:00 -19.5 -22.2 79 0.0 25 21   99.33   -30 LegendNANA
13:00 -19.1 -21.9 79 0.3 26 18   99.41   -29 LegendNANA
14:00 -19.8 -23.0 76 0.0 25 14   99.49   -29 LegendNANA
15:00 -20.2 -23.3 76 0.0 25 13   99.56   -29 LegendNANA
16:00 -22.1 -24.9 78 0.0 26 4   99.64   -26 LegendNANA
17:00 -24.0 -26.9 77 0.0 24 10   99.70   -32 LegendNANA
18:00 -24.1 -26.8 78 0.0 27 8   99.76   -31 LegendNANA
19:00 -23.5 -26.2 78 0.0 26 16   99.78   -34 LegendNANA
20:00 -22.2 -24.9 79 0.0 23 18   99.84   -33 LegendNANA
21:00 -21.8 -24.5 79 0.0 24 22   99.89   -33 LegendNANA
22:00 -22.7 -25.5 78 0.0 23 20   99.93   -34 LegendNANA
23:00 -22.3 -25.1 78 0.0 22 22   99.96   -34 LegendNANA

Notes on Data Quality.

Legend

  • E = Estimated
  • M = Missing
  • NA = Not Available*
  • [empty] = Indicates an unobserved value
Date modified: